FDX51 EIDW-EHAM

Flight info

Callsign FDX51
Flight time N/A
Altitude 35000
Route ENDEQ3J ENDEQ Q36 ALAVA Z195 MALUD UL975 WAL M16 DOLAS L603 LAMSO
Aircraft MD11/H-SDE1E2E3FGHIJ2J3J4J5M1RWXY/LB1D1

Departure

Time 2026-02-19 11:21
Airport Dublin Airport (EIDW)

Arrival

Time N/A
Airport Amsterdam Airport Schiphol (EHAM)
Time Latitude Longitude Altitude Speed Heading
2026-02-19 10:49 53.42590 -6.26161 221 ft 0 kts
2026-02-19 11:07 53.42575 -6.26164 221 ft 2 kts
2026-02-19 11:08 53.42560 -6.26166 221 ft 2 kts
2026-02-19 11:08 53.42528 -6.26177 221 ft 2 kts 63°
2026-02-19 11:08 53.42518 -6.26185 222 ft 0 kts 37°
2026-02-19 11:09 53.42516 -6.26189 222 ft 0 kts 47°
2026-02-19 11:13 53.42516 -6.26188 222 ft 0 kts 47°
2026-02-19 11:15 53.42520 -6.26179 221 ft 3 kts 57°
2026-02-19 11:15 53.42527 -6.26106 220 ft 10 kts 90°
2026-02-19 11:16 53.42517 -6.25946 217 ft 16 kts 101°
2026-02-19 11:16 53.42530 -6.25710 214 ft 14 kts 53°
2026-02-19 11:16 53.42616 -6.25558 212 ft 22 kts 44°
2026-02-19 11:17 53.42756 -6.25508 213 ft 24 kts 338°
2026-02-19 11:17 53.42916 -6.25633 215 ft 28 kts 336°
2026-02-19 11:17 53.43114 -6.25775 217 ft 30 kts 336°
2026-02-19 11:17 53.43303 -6.25913 221 ft 21 kts 341°
2026-02-19 11:18 53.43385 -6.25783 219 ft 22 kts 66°
2026-02-19 11:18 53.43405 -6.25496 215 ft 23 kts 95°
2026-02-19 11:18 53.43389 -6.25205 211 ft 26 kts 96°
2026-02-19 11:18 53.43373 -6.24903 211 ft 27 kts 95°
2026-02-19 11:19 53.43352 -6.24552 213 ft 31 kts 96°
2026-02-19 11:19 53.43337 -6.24250 220 ft 23 kts 95°
2026-02-19 11:19 53.43323 -6.23970 221 ft 20 kts 92°
2026-02-19 11:19 53.43397 -6.23849 220 ft 19 kts
2026-02-19 11:20 53.43490 -6.23909 218 ft 15 kts 283°
2026-02-19 11:20 53.43494 -6.23957 218 ft 0 kts 277°
2026-02-19 11:20 53.43497 -6.24002 218 ft 14 kts 275°
2026-02-19 11:21 53.43522 -6.24485 215 ft 78 kts 276°
2026-02-19 11:21 53.43601 -6.25894 221 ft 160 kts 276°
2026-02-19 11:21 53.43718 -6.27880 878 ft 175 kts 277°
2026-02-19 11:21 53.43968 -6.29851 1706 ft 185 kts 302°
2026-02-19 11:22 53.44694 -6.31573 2782 ft 182 kts 311°
2026-02-19 11:22 53.45483 -6.33160 3720 ft 185 kts 312°
2026-02-19 11:22 53.46541 -6.34661 3999 ft 213 kts 331°
2026-02-19 11:22 53.47958 -6.35367 4760 ft 221 kts 355°
2026-02-19 11:23 53.49485 -6.35337 5876 ft 218 kts
2026-02-19 11:23 53.50918 -6.34683 6939 ft 223 kts 22°
2026-02-19 11:23 53.52200 -6.33007 7574 ft 249 kts 50°
2026-02-19 11:23 53.52923 -6.30225 8112 ft 278 kts 82°
2026-02-19 11:24 53.52933 -6.26905 8710 ft 300 kts 92°
2026-02-19 11:24 53.52581 -6.19831 10744 ft 310 kts 93°
2026-02-19 11:24 53.52439 -6.16218 11755 ft 313 kts 92°
2026-02-19 11:25 53.52331 -6.12566 12728 ft 318 kts 91°
2026-02-19 11:25 53.52199 -6.08809 13538 ft 326 kts 94°
2026-02-19 11:25 53.51900 -6.05046 14305 ft 337 kts 100°
2026-02-19 11:25 53.51362 -6.01058 14626 ft 362 kts 103°
2026-02-19 11:26 53.50722 -5.96873 15147 ft 380 kts 104°
2026-02-19 11:26 53.50063 -5.92510 15962 ft 389 kts 103°
2026-02-19 11:26 53.49424 -5.88105 16949 ft 393 kts 103°
2026-02-19 11:26 53.48793 -5.83692 17954 ft 396 kts 103°
2026-02-19 11:27 53.48200 -5.79182 18803 ft 403 kts 102°
2026-02-19 11:27 53.47619 -5.74487 19522 ft 412 kts 101°
2026-02-19 11:27 53.47042 -5.69820 20317 ft 419 kts 100°
2026-02-19 11:27 53.46443 -5.65000 21072 ft 426 kts 100°
2026-02-19 11:28 53.45823 -5.60074 21706 ft 436 kts 99°
2026-02-19 11:28 53.44692 -5.50032 23294 ft 445 kts 94°
2026-02-19 11:28 53.44391 -5.44846 23518 ft 462 kts 89°
2026-02-19 11:29 53.44229 -5.39344 23728 ft 481 kts 88°
2026-02-19 11:29 53.44064 -5.33550 23918 ft 502 kts 89°
2026-02-19 11:29 53.43868 -5.27665 24124 ft 522 kts 90°
2026-02-19 11:29 53.43694 -5.22995 24367 ft 534 kts 90°
2026-02-19 11:30 53.43510 -5.17927 25113 ft 537 kts 90°
2026-02-19 11:30 53.43269 -5.11693 26079 ft 538 kts 90°
2026-02-19 11:30 53.43024 -5.05471 27325 ft 535 kts 90°
2026-02-19 11:30 53.42784 -4.99235 28429 ft 532 kts 89°
2026-02-19 11:31 53.42549 -4.93032 29398 ft 533 kts 89°
2026-02-19 11:31 53.42329 -4.86868 30533 ft 530 kts 89°
2026-02-19 11:31 53.42110 -4.80764 31468 ft 528 kts 88°
2026-02-19 11:31 53.41893 -4.74597 32209 ft 528 kts 87°
2026-02-19 11:32 53.41682 -4.68452 33042 ft 526 kts 87°
2026-02-19 11:32 53.41275 -4.56284 34457 ft 523 kts 86°
2026-02-19 11:32 53.41078 -4.50171 34814 ft 529 kts 86°
2026-02-19 11:33 53.40887 -4.44020 34826 ft 528 kts 86°
2026-02-19 11:33 53.40505 -4.31897 34923 ft 517 kts 86°
2026-02-19 11:34 53.40151 -4.19754 34925 ft 520 kts 87°
2026-02-19 11:34 53.39802 -4.07702 34921 ft 520 kts 87°
2026-02-19 11:35 53.39681 -3.95575 34927 ft 514 kts 82°
2026-02-19 11:35 53.40194 -3.83696 34917 ft 511 kts 78°
2026-02-19 11:36 53.40795 -3.71907 34907 ft 509 kts 79°
2026-02-19 11:36 53.41056 -3.53976 34906 ft 516 kts 88°
2026-02-19 11:37 53.40494 -3.41972 34915 ft 516 kts 90°
2026-02-19 11:37 53.39924 -3.30152 34891 ft 514 kts 90°
2026-02-19 11:38 53.39409 -3.18191 34899 ft 515 kts 90°
2026-02-19 11:38 53.38914 -3.06385 34892 ft 513 kts 90°
2026-02-19 11:39 53.38435 -2.94413 34912 ft 514 kts 90°
2026-02-19 11:39 53.37919 -2.82550 34962 ft 513 kts 90°
2026-02-19 11:40 53.37185 -2.64841 34947 ft 509 kts 90°
2026-02-19 11:41 53.36723 -2.53205 34873 ft 508 kts 90°
2026-02-19 11:41 53.36268 -2.41594 34902 ft 508 kts 90°
2026-02-19 11:42 53.35792 -2.30014 34917 ft 508 kts 92°
2026-02-19 11:42 53.34894 -2.18354 34875 ft 508 kts 97°
2026-02-19 11:43 53.33666 -2.06775 34926 ft 510 kts 98°
2026-02-19 11:43 53.32451 -1.95252 34918 ft 502 kts 98°
2026-02-19 11:44 53.31268 -1.83770 34864 ft 502 kts 98°
2026-02-19 11:44 53.29480 -1.66571 34866 ft 502 kts 98°
2026-02-19 11:45 53.28276 -1.55145 34852 ft 498 kts 98°
2026-02-19 11:45 53.27006 -1.44010 34905 ft 499 kts 99°
2026-02-19 11:46 53.25715 -1.32625 34813 ft 497 kts 99°
2026-02-19 11:46 53.24468 -1.21432 34870 ft 500 kts 99°
2026-02-19 11:47 53.23228 -1.10094 34872 ft 495 kts 99°
2026-02-19 11:47 53.21996 -0.98837 34909 ft 496 kts 99°
2026-02-19 11:48 53.20159 -0.81833 34906 ft 495 kts 100°
2026-02-19 11:49 53.18761 -0.70567 34845 ft 492 kts 101°
2026-02-19 11:49 53.17365 -0.59476 34884 ft 492 kts 101°
2026-02-19 11:50 53.15976 -0.48285 34865 ft 491 kts 101°
2026-02-19 11:50 53.14613 -0.37168 34866 ft 488 kts 101°
2026-02-19 11:51 53.13269 -0.26119 34878 ft 490 kts 101°
2026-02-19 11:51 53.11916 -0.14935 34891 ft 490 kts 101°
2026-02-19 11:52 53.10586 -0.03846 34905 ft 487 kts 101°
2026-02-19 11:52 53.08615 0.12731 34879 ft 485 kts 101°
2026-02-19 11:53 53.07340 0.23639 34865 ft 483 kts 100°
2026-02-19 11:53 53.06053 0.34653 34889 ft 485 kts 100°
2026-02-19 11:54 53.04791 0.45662 34879 ft 483 kts 99°
2026-02-19 11:55 53.02758 0.62069 34871 ft 484 kts 101°
2026-02-19 11:55 53.01328 0.72872 34832 ft 480 kts 102°
2026-02-19 11:56 52.99941 0.83732 34884 ft 481 kts 101°
2026-02-19 11:56 52.97870 0.99989 34888 ft 477 kts 101°
2026-02-19 11:57 52.96547 1.10827 34868 ft 478 kts 100°
2026-02-19 11:57 52.95221 1.21550 34862 ft 476 kts 100°
2026-02-19 11:58 52.93883 1.32355 34903 ft 476 kts 101°
2026-02-19 11:58 52.92554 1.43092 34788 ft 472 kts 100°
2026-02-19 11:59 52.91900 1.48438 34545 ft 474 kts 100°
2026-02-19 11:59 52.91242 1.53821 33963 ft 477 kts 100°
2026-02-19 11:59 52.90587 1.59199 33273 ft 482 kts 100°
2026-02-19 11:59 52.89922 1.64672 32468 ft 488 kts 100°
2026-02-19 12:00 52.89263 1.70131 31743 ft 493 kts 101°
2026-02-19 12:00 52.87913 1.81327 30472 ft 495 kts 100°
2026-02-19 12:00 52.87256 1.86884 29851 ft 489 kts 100°
2026-02-19 12:01 52.86600 1.92382 29503 ft 476 kts 100°
2026-02-19 12:01 52.85970 1.97689 29133 ft 469 kts 99°
2026-02-19 12:01 52.85349 2.02943 28691 ft 469 kts 100°
2026-02-19 12:01 52.84723 2.08278 28271 ft 478 kts 99°
2026-02-19 12:02 52.84082 2.13731 27746 ft 478 kts 99°
2026-02-19 12:02 52.83456 2.19118 27268 ft 476 kts 99°
2026-02-19 12:02 52.82840 2.24459 26776 ft 478 kts 100°
2026-02-19 12:02 52.82214 2.29901 26292 ft 479 kts 99°
2026-02-19 12:03 52.81592 2.35309 25788 ft 478 kts 100°
2026-02-19 12:03 52.80921 2.40769 25497 ft 488 kts 101°
2026-02-19 12:03 52.80210 2.46248 24704 ft 486 kts 101°
2026-02-19 12:03 52.79512 2.51581 24188 ft 474 kts 101°
2026-02-19 12:04 52.78826 2.56856 23841 ft 466 kts 101°
2026-02-19 12:04 52.77431 2.67582 22916 ft 481 kts 102°
2026-02-19 12:04 52.76740 2.72941 22415 ft 479 kts 102°
2026-02-19 12:05 52.76057 2.78315 21916 ft 476 kts 102°
2026-02-19 12:05 52.75374 2.83652 21395 ft 475 kts 102°
2026-02-19 12:05 52.74667 2.88937 20858 ft 473 kts 103°
2026-02-19 12:05 52.73888 2.94195 20301 ft 472 kts 105°
2026-02-19 12:06 52.72871 2.99316 19673 ft 467 kts 110°
2026-02-19 12:06 52.71552 3.04071 18900 ft 455 kts 117°
2026-02-19 12:06 52.70038 3.08566 18272 ft 442 kts 119°
2026-02-19 12:06 52.68502 3.12906 17562 ft 431 kts 120°
2026-02-19 12:07 52.67012 3.17118 16967 ft 420 kts 120°
2026-02-19 12:07 52.65551 3.21268 16666 ft 422 kts 120°
2026-02-19 12:07 52.64053 3.25512 16224 ft 432 kts 120°
2026-02-19 12:07 52.62535 3.29841 15514 ft 435 kts 119°
2026-02-19 12:08 52.61026 3.34127 14873 ft 435 kts 119°
2026-02-19 12:08 52.58527 3.43168 13554 ft 433 kts 107°
2026-02-19 12:08 52.57832 3.47891 12819 ft 422 kts 101°
2026-02-19 12:09 52.57326 3.52528 12243 ft 403 kts 99°
2026-02-19 12:09 52.56603 3.56885 11527 ft 386 kts 112°
2026-02-19 12:09 52.55483 3.60761 11035 ft 361 kts 118°
2026-02-19 12:09 52.54503 3.63604 10526 ft 339 kts 120°
2026-02-19 12:10 52.53320 3.66769 10007 ft 312 kts 122°
2026-02-19 12:10 52.52185 3.69663 9503 ft 291 kts 123°
2026-02-19 12:10 52.51107 3.72336 9070 ft 270 kts 123°
2026-02-19 12:10 52.50106 3.74779 8672 ft 254 kts 123°
2026-02-19 12:11 52.49112 3.77188 8020 ft 259 kts 123°
2026-02-19 12:11 52.48128 3.79563 7762 ft 247 kts 123°
2026-02-19 12:11 52.47152 3.81918 7870 ft 250 kts 123°
2026-02-19 12:11 52.46159 3.84325 7328 ft 255 kts 123°
2026-02-19 12:12 52.45188 3.86680 7045 ft 245 kts 123°
2026-02-19 12:12 52.43274 3.91320 6147 ft 236 kts 122°
2026-02-19 12:12 52.42356 3.93548 5497 ft 242 kts 122°
2026-02-19 12:13 52.41432 3.95790 5070 ft 234 kts 123°
2026-02-19 12:13 52.40520 3.98014 4516 ft 240 kts 122°
2026-02-19 12:13 52.39592 4.00309 4241 ft 243 kts 122°
2026-02-19 12:13 52.38655 4.02606 3714 ft 245 kts 122°
2026-02-19 12:14 52.37702 4.04941 3113 ft 243 kts 122°
2026-02-19 12:14 52.36782 4.07185 2745 ft 237 kts 122°
2026-02-19 12:14 52.35864 4.09398 2364 ft 232 kts 122°
2026-02-19 12:14 52.34962 4.11518 2109 ft 222 kts 122°
2026-02-19 12:15 52.34066 4.13576 1962 ft 221 kts 122°
2026-02-19 12:15 52.33157 4.15652 2026 ft 228 kts 122°
2026-02-19 12:15 52.32239 4.17758 2014 ft 225 kts 122°
2026-02-19 12:15 52.31335 4.19816 1984 ft 223 kts 122°
2026-02-19 12:16 52.30432 4.21874 1978 ft 225 kts 122°
2026-02-19 12:16 52.28673 4.25912 1932 ft 202 kts 122°
2026-02-19 12:16 52.27866 4.27733 1947 ft 198 kts 122°
2026-02-19 12:17 52.26999 4.29709 2057 ft 219 kts 122°
2026-02-19 12:17 52.26099 4.31774 2015 ft 224 kts 122°
2026-02-19 12:17 52.25203 4.33829 2012 ft 225 kts 122°
2026-02-19 12:17 52.24308 4.35874 2017 ft 226 kts 122°
2026-02-19 12:18 52.23416 4.37918 1999 ft 224 kts 122°
2026-02-19 12:18 52.22551 4.39905 1983 ft 224 kts 122°
2026-02-19 12:18 52.21815 4.42039 1977 ft 223 kts 111°
2026-02-19 12:18 52.21369 4.44054 2004 ft 224 kts 106°
2026-02-19 12:19 52.21265 4.44624 2007 ft 224 kts 105°